JL1RTQ-13 Weather Reports


time (UTC)temp
C
wind
direction
speed
KPH
gust
KPH
rain 1hr
cm
rain 24hr
cm
rain mn
cm
humidity
%
barometer
mb
20260502194540 13 330 3.2 6.4 0.00 0.00 0.00 71 1013.2
20260502193033 13 316 3.2 8.0 0.00 0.00 0.00 70 1012.9
20260502191538 13 345 3.2 6.4 0.00 0.00 0.00 69 1013.1
20260502190032 13 304 1.6 6.4 0.00 0.00 0.00 68 1013.2
20260502184537 14 316 3.2 4.8 0.00 0.00 0.00 67 1013.3
20260502183031 14 331 0.0 6.4 0.00 0.00 0.00 66 1013.1
20260502181535 14 4 3.2 9.7 0.00 0.00 0.00 65 1013.1
20260502163048 15 280 0.0 1.6 0.00 0.00 0.00 70 1012.8
20260502161530 15 0 0.0 1.6 0.00 0.00 0.00 68 1012.6
20260502151534 16 0 0.0 1.6 0.00 0.00 0.00 64 1012.9
20260502123030 18 60 0.0 1.6 0.00 0.00 0.00 48 1012.1
20260502121530 18 0 0.0 0.0 0.00 0.00 0.00 49 1012.0
20260502114530 19 0 0.0 1.6 0.00 0.18 0.00 44 1011.5
20260502113030 20 0 0.0 1.6 0.00 0.18 0.00 41 1011.2
20260502111529 20 0 0.0 0.0 0.00 0.18 0.00 41 1010.8
20260502110035 21 0 0.0 1.6 0.00 0.18 0.00 37 1010.6
20260502104529 21 61 0.0 3.2 0.00 0.18 0.00 34 1010.4
20260502103029 21 59 1.6 4.8 0.00 0.18 0.00 33 1010.2
20260502101531 22 55 3.2 4.8 0.00 0.18 0.00 32 1010.1
20260502091530 23 330 1.6 4.8 0.00 0.18 0.00 27 1009.6
20260502071533 25 8 14.5 24.1 0.00 0.18 0.00 24 1008.1
20260502070042 26 338 11.3 29.0 0.00 0.18 0.00 25 1007.6
20260502064539 26 305 9.7 25.7 0.00 0.18 0.00 24 1007.3
20260502063030 26 316 12.9 29.0 0.00 0.18 0.00 24 1007.0
20260502061528 26 323 14.5 32.2 0.00 0.18 0.00 24 1006.8
20260502060030 25 332 14.5 32.2 0.00 0.18 0.00 24 1006.7
20260502054530 26 326 17.7 33.8 0.00 0.18 0.00 24 1006.4
20260502053032 26 312 19.3 33.8 0.00 0.18 0.00 26 1006.1
20260502051532 25 345 17.7 35.4 0.00 0.18 0.00 26 1006.3
20260502050035 25 354 11.3 33.8 0.00 0.18 0.00 27 1006.4
20260502044530 25 349 19.3 33.8 0.00 0.18 0.00 25 1006.5
20260502043030 25 345 14.5 35.4 0.00 0.18 0.00 27 1006.3
20260502041531 25 326 16.1 35.4 0.00 0.18 0.00 27 1006.3
20260502040029 25 305 16.1 37.0 0.00 0.18 0.00 28 1006.4
20260502034537 25 35 14.5 30.6 0.00 0.36 0.00 27 1006.5
20260502033028 25 359 17.7 40.2 0.00 0.36 0.00 27 1006.0
20260502031528 24 340 20.9 37.0 0.00 0.36 0.00 26 1005.8
20260502030028 24 340 16.1 38.6 0.00 0.36 0.00 28 1005.6
20260502024528 24 299 17.7 37.0 0.00 0.76 0.00 27 1005.7
20260502023030 24 358 14.5 32.2 0.00 0.76 0.00 29 1005.5
20260502021530 24 308 12.9 38.6 0.00 0.76 0.00 31 1005.0
20260502020028 23 275 12.9 32.2 0.00 0.76 0.00 32 1004.6
20260502014548 23 326 19.3 32.2 0.00 1.24 0.00 32 1004.3
20260502013028 23 314 19.3 33.8 0.00 1.24 0.00 32 1004.2
20260502011533 23 318 22.5 38.6 0.00 1.24 0.00 30 1004.1
20260502010030 23 292 17.7 40.2 0.00 1.24 0.00 31 1004.1
20260502004533 22 255 14.5 33.8 0.00 2.16 0.00 33 1004.0
20260502003032 22 274 11.3 29.0 0.00 2.16 0.00 34 1003.7
20260502001532 21 253 6.4 16.1 0.00 2.16 0.00 39 1003.7
20260502000045 20 219 6.4 12.9 0.00 2.16 0.00 39 1003.9
20260501234530 20 200 6.4 16.1 0.00 3.43 0.00 41 1003.7
20260501233031 19 276 8.0 16.1 0.00 3.43 0.00 42 1003.5
20260501231531 19 233 6.4 12.9 0.00 3.43 0.00 42 1003.4
20260501230031 18 233 8.0 16.1 0.00 3.43 0.00 42 1003.2
20260501224529 18 259 4.8 12.9 0.00 4.14 0.00 43 1002.7
20260501223029 18 300 8.0 16.1 0.00 4.14 0.00 45 1002.4
20260501221531 18 290 8.0 22.5 0.00 4.14 0.00 44 1002.2
20260501220028 17 322 9.7 29.0 0.00 4.14 0.00 44 1001.8
20260501214536 17 289 12.9 22.5 0.00 4.70 0.00 47 1001.6
20260501213028 16 300 9.7 19.3 0.00 4.70 0.00 51 1001.3
20260501211528 15 351 4.8 11.3 0.00 4.70 0.00 56 1001.1
20260501210031 15 8 3.2 19.3 0.00 4.70 0.00 58 1000.7
20260501204530 15 309 9.7 20.9 0.00 4.70 0.00 58 1000.7
20260501203034 15 330 12.9 25.7 0.00 4.70 0.00 62 1000.4
20260501201528 15 4 11.3 19.3 0.00 4.70 0.00 63 1000.1
20260501200030 13 328 6.4 14.5 0.00 4.70 0.00 71 999.8